This is the latest recevied weather packets stored in our database for station/object K8JCL-13. If no packets are shown the sender has not sent any weather packets the latest 10 day(s).
| Time | Temp. | Humidity | Pressure | Rain* | Wind** | Luminosity | Snow |
|---|---|---|---|---|---|---|---|
| 1777768190 | 7.78° C | 59% | 1018.1 hPa | 0 mm | - | 2 W/m² | - |
| 1777767888 | 7.78° C | 57% | 1018 hPa | 0 mm | - | 4 W/m² | - |
| 1777767584 | 7.78° C | 57% | 1018.1 hPa | 0 mm | - | 6 W/m² | - |
| 1777767281 | 7.78° C | 57% | 1018 hPa | 0 mm | - | 8 W/m² | - |
| 1777766978 | 7.78° C | 58% | 1017.9 hPa | 0 mm | - | 11 W/m² | - |
| 1777766675 | 7.78° C | 55% | 1018 hPa | 0 mm | - | 13 W/m² | - |
| 1777766373 | 8.33° C | 57% | 1017.9 hPa | 0 mm | - | 15 W/m² | - |
| 1777766069 | 8.33° C | 56% | 1018.2 hPa | 0 mm | - | 17 W/m² | - |
| 1777765767 | 8.33° C | 54% | 1018 hPa | 0 mm | - | 20 W/m² | - |
| 1777765463 | 8.33° C | 56% | 1017.8 hPa | 0 mm | - | 25 W/m² | - |
| 1777765160 | 8.33° C | 54% | 1017.8 hPa | 0 mm | - | 28 W/m² | - |
| 1777764855 | 8.33° C | 53% | 1017.9 hPa | 0 mm | - | 31 W/m² | - |
| 1777764553 | 8.89° C | 53% | 1018 hPa | 0 mm | - | 35 W/m² | - |
| 1777764249 | 8.89° C | 53% | 1017.9 hPa | 0 mm | - | 41 W/m² | - |
| 1777763946 | 8.89° C | 53% | 1018 hPa | 0 mm | - | 46 W/m² | - |
| 1777763644 | 8.89° C | 55% | 1017.9 hPa | 0 mm | - | 48 W/m² | - |
| 1777763342 | 8.89° C | 53% | 1017.7 hPa | 0 mm | - | 45 W/m² | - |
| 1777763039 | 8.89° C | 53% | 1017.9 hPa | 0 mm | - | 43 W/m² | - |
| 1777762736 | 9.44° C | 51% | 1017.7 hPa | 0 mm | - | 44 W/m² | - |
| 1777762433 | 9.44° C | 51% | 1017.7 hPa | 0 mm | - | 52 W/m² | - |
| 1777762130 | 9.44° C | 51% | 1017.7 hPa | 0 mm | - | 63 W/m² | - |
| 1777761826 | 9.44° C | 51% | 1017.7 hPa | 0 mm | - | 76 W/m² | - |
| 1777761523 | 9.44° C | 50% | 1017.6 hPa | 0 mm | - | 73 W/m² | - |
| 1777761221 | 8.89° C | 51% | 1017.6 hPa | 0 mm | - | 72 W/m² | - |
| 1777760919 | 9.44° C | 50% | 1017.7 hPa | 0 mm | - | 84 W/m² | - |
* Rain latest hour (hover to see other rain measurements)
** Current wind speed in m/s (hover to see current wind gust speed)